| time (UTC) | temp F | wind direction | speed MPH | gust MPH | rain 1hr in | rain 24hr in | rain mn in | humidity % | barometer mb |
| 20260506163519 | 57 | 303 | 3.0 | 5.0 | 0.00 | 0.70 | 0.70 | 87 | 1009.0 |
| 20260506162918 | 57 | 297 | 3.0 | 6.0 | 0.00 | 0.70 | 0.70 | 87 | 1009.0 |
| 20260506162318 | 57 | 309 | 4.0 | 7.0 | 0.00 | 0.70 | 0.70 | 87 | 1008.9 |
| 20260506161718 | 57 | 290 | 4.0 | 7.0 | 0.00 | 0.70 | 0.70 | 87 | 1008.9 |
| 20260506161118 | 57 | 289 | 4.0 | 8.0 | 0.00 | 0.70 | 0.70 | 87 | 1008.9 |
| 20260506160517 | 57 | 285 | 5.0 | 10.0 | 0.01 | 0.70 | 0.70 | 86 | 1009.0 |
| 20260506155917 | 57 | 293 | 6.0 | 10.0 | 0.01 | 0.70 | 0.70 | 86 | 1008.9 |
| 20260506155316 | 57 | 291 | 7.0 | 13.0 | 0.01 | 0.70 | 0.70 | 85 | 1008.9 |
| 20260506154716 | 58 | 344 | 6.0 | 10.0 | 0.01 | 0.70 | 0.70 | 85 | 1008.8 |
| 20260506154116 | 58 | 301 | 6.0 | 11.0 | 0.02 | 0.70 | 0.70 | 86 | 1008.8 |
| 20260506153515 | 57 | 326 | 4.0 | 8.0 | 0.02 | 0.70 | 0.70 | 87 | 1008.8 |
| 20260506152915 | 57 | 311 | 3.0 | 5.0 | 0.02 | 0.70 | 0.70 | 89 | 1008.8 |
| 20260506152315 | 57 | 326 | 3.0 | 5.0 | 0.02 | 0.70 | 0.70 | 89 | 1008.7 |
| 20260506151714 | 56 | 305 | 3.0 | 7.0 | 0.03 | 0.70 | 0.70 | 89 | 1008.7 |
| 20260506151114 | 56 | 297 | 3.0 | 6.0 | 0.04 | 0.70 | 0.70 | 89 | 1008.6 |
| 20260506150514 | 56 | 325 | 3.0 | 6.0 | 0.04 | 0.69 | 0.69 | 89 | 1008.6 |
| 20260506145913 | 56 | 320 | 3.0 | 7.0 | 0.04 | 0.69 | 0.69 | 90 | 1008.6 |
| 20260506145313 | 56 | 297 | 1.0 | 6.0 | 0.04 | 0.69 | 0.69 | 91 | 1008.7 |
| 20260506144713 | 57 | 24 | 0.0 | 1.0 | 0.04 | 0.69 | 0.69 | 91 | 1008.6 |
| 20260506144112 | 57 | 24 | 0.0 | 2.0 | 0.05 | 0.68 | 0.68 | 91 | 1008.6 |
| 20260506143512 | 57 | 22 | 0.0 | 1.0 | 0.09 | 0.68 | 0.68 | 91 | 1008.6 |
| 20260506142912 | 56 | 19 | 1.0 | 4.0 | 0.10 | 0.68 | 0.68 | 90 | 1008.7 |
| 20260506142311 | 56 | 315 | 1.0 | 3.0 | 0.16 | 0.68 | 0.68 | 91 | 1008.6 |
| 20260506141711 | 57 | 45 | 1.0 | 2.0 | 0.20 | 0.67 | 0.67 | 91 | 1008.6 |
| 20260506141111 | 57 | 51 | 0.0 | 2.0 | 0.19 | 0.66 | 0.66 | 91 | 1008.5 |
| 20260506140510 | 57 | 51 | 1.0 | 1.0 | 0.20 | 0.65 | 0.65 | 91 | 1008.5 |
| 20260506135910 | 56 | 51 | 1.0 | 2.0 | 0.21 | 0.65 | 0.65 | 91 | 1008.5 |
| 20260506135310 | 56 | 49 | 1.0 | 1.0 | 0.23 | 0.65 | 0.65 | 91 | 1008.5 |
| 20260506134709 | 56 | 49 | 2.0 | 2.0 | 0.32 | 0.65 | 0.65 | 91 | 1008.5 |
| 20260506134109 | 56 | 44 | 2.0 | 5.0 | 0.32 | 0.63 | 0.63 | 91 | 1008.5 |
| 20260506133509 | 56 | 322 | 2.0 | 3.0 | 0.28 | 0.59 | 0.59 | 91 | 1008.4 |
| 20260506132908 | 56 | 247 | 1.0 | 4.0 | 0.28 | 0.58 | 0.58 | 90 | 1008.4 |
| 20260506132308 | 56 | 272 | 0.0 | 1.0 | 0.22 | 0.52 | 0.52 | 90 | 1008.4 |
| 20260506131707 | 56 | 272 | 1.0 | 2.0 | 0.17 | 0.47 | 0.47 | 90 | 1008.4 |
| 20260506131107 | 56 | 272 | 1.0 | 2.0 | 0.17 | 0.47 | 0.47 | 90 | 1008.3 |
| 20260506130507 | 56 | 272 | 1.0 | 2.0 | 0.15 | 0.45 | 0.45 | 90 | 1008.3 |
| 20260506125907 | 56 | 272 | 3.0 | 3.0 | 0.14 | 0.44 | 0.44 | 89 | 1008.3 |
| 20260506125306 | 56 | 250 | 4.0 | 10.0 | 0.12 | 0.42 | 0.42 | 88 | 1008.3 |
| 20260506124706 | 57 | 327 | 2.0 | 10.0 | 0.03 | 0.33 | 0.33 | 87 | 1008.3 |
| 20260506124105 | 58 | 30 | 2.0 | 3.0 | 0.01 | 0.31 | 0.31 | 87 | 1008.2 |
| 20260506123505 | 58 | 30 | 3.0 | 4.0 | 0.01 | 0.31 | 0.31 | 87 | 1008.2 |
| 20260506122905 | 58 | 44 | 3.0 | 5.0 | 0.00 | 0.30 | 0.30 | 87 | 1008.1 |
| 20260506122306 | 58 | 14 | 3.0 | 6.0 | 0.00 | 0.30 | 0.30 | 86 | 1008.2 |
| 20260506121705 | 58 | 351 | 3.0 | 6.0 | 0.01 | 0.30 | 0.30 | 87 | 1008.1 |
| 20260506121104 | 57 | 339 | 4.0 | 6.0 | 0.05 | 0.30 | 0.30 | 88 | 1008.1 |
| 20260506120504 | 57 | 313 | 4.0 | 9.0 | 0.08 | 0.30 | 0.30 | 88 | 1008.1 |
| 20260506115903 | 57 | 354 | 4.0 | 8.0 | 0.10 | 0.30 | 0.30 | 89 | 1008.1 |
| 20260506115306 | 57 | 303 | 4.0 | 7.0 | 0.11 | 0.30 | 0.30 | 90 | 1008.2 |
| 20260506114702 | 56 | 345 | 4.0 | 8.0 | 0.11 | 0.30 | 0.30 | 90 | 1008.1 |
| 20260506114102 | 56 | 303 | 3.0 | 6.0 | 0.11 | 0.30 | 0.30 | 91 | 1008.2 |
| 20260506113502 | 56 | 336 | 4.0 | 10.0 | 0.11 | 0.30 | 0.30 | 91 | 1008.2 |
| 20260506112901 | 55 | 336 | 4.0 | 7.0 | 0.11 | 0.30 | 0.30 | 91 | 1008.2 |
| 20260506112301 | 55 | 326 | 5.0 | 10.0 | 0.12 | 0.30 | 0.30 | 91 | 1008.1 |
| 20260506111701 | 55 | 322 | 4.0 | 9.0 | 0.11 | 0.29 | 0.29 | 92 | 1008.1 |
| 20260506111100 | 55 | 328 | 5.0 | 9.0 | 0.07 | 0.25 | 0.25 | 92 | 1008.1 |
| 20260506110500 | 55 | 343 | 4.0 | 9.0 | 0.04 | 0.22 | 0.22 | 91 | 1008.2 |
| 20260506105900 | 55 | 2 | 4.0 | 7.0 | 0.02 | 0.20 | 0.20 | 92 | 1008.1 |
| 20260506105259 | 55 | 326 | 4.0 | 8.0 | 0.01 | 0.19 | 0.19 | 91 | 1008.0 |
| 20260506104659 | 55 | 358 | 4.0 | 7.0 | 0.01 | 0.19 | 0.19 | 90 | 1008.0 |
| 20260506104059 | 55 | 1 | 4.0 | 8.0 | 0.01 | 0.19 | 0.19 | 90 | 1007.9 |
| 20260506103458 | 56 | 359 | 3.0 | 8.0 | 0.01 | 0.19 | 0.19 | 89 | 1008.0 |
| 20260506102859 | 56 | 10 | 3.0 | 8.0 | 0.01 | 0.19 | 0.19 | 89 | 1007.9 |
| 20260506102258 | 56 | 334 | 4.0 | 9.0 | 0.00 | 0.18 | 0.18 | 89 | 1007.9 |
| 20260506101658 | 56 | 295 | 4.0 | 7.0 | 0.00 | 0.18 | 0.18 | 89 | 1007.9 |
| 20260506101057 | 56 | 299 | 5.0 | 7.0 | 0.00 | 0.18 | 0.18 | 90 | 1007.9 |
| 20260506100457 | 56 | 292 | 5.0 | 9.0 | 0.00 | 0.18 | 0.18 | 89 | 1007.9 |
| 20260506095856 | 56 | 265 | 4.0 | 9.0 | 0.00 | 0.18 | 0.18 | 89 | 1007.8 |
| 20260506095256 | 56 | 299 | 4.0 | 8.0 | 0.00 | 0.18 | 0.18 | 90 | 1007.8 |
| 20260506094656 | 56 | 338 | 4.0 | 9.0 | 0.00 | 0.18 | 0.18 | 90 | 1007.7 |
| 20260506094055 | 56 | 331 | 2.0 | 8.0 | 0.00 | 0.18 | 0.18 | 90 | 1007.6 |
| 20260506093455 | 56 | 30 | 2.0 | 4.0 | 0.00 | 0.18 | 0.18 | 92 | 1007.6 |
| 20260506092855 | 56 | 358 | 1.0 | 3.0 | 0.00 | 0.18 | 0.18 | 92 | 1007.5 |
| 20260506092254 | 55 | 16 | 2.0 | 3.0 | 0.00 | 0.18 | 0.18 | 93 | 1007.4 |
| 20260506091654 | 55 | 16 | 2.0 | 4.0 | 0.00 | 0.18 | 0.18 | 94 | 1007.4 |
| 20260506091054 | 55 | 20 | 1.0 | 3.0 | 0.01 | 0.18 | 0.18 | 94 | 1007.4 |
| 20260506090453 | 55 | 20 | 1.0 | 3.0 | 0.01 | 0.18 | 0.18 | 94 | 1007.3 |
| 20260506085853 | 55 | 20 | 2.0 | 3.0 | 0.01 | 0.18 | 0.18 | 95 | 1007.3 |
| 20260506085253 | 55 | 20 | 3.0 | 4.0 | 0.02 | 0.18 | 0.18 | 95 | 1007.2 |
| 20260506084652 | 55 | 20 | 3.0 | 5.0 | 0.02 | 0.18 | 0.18 | 95 | 1007.2 |
| 20260506084052 | 54 | 20 | 2.0 | 4.0 | 0.02 | 0.18 | 0.18 | 95 | 1007.2 |
| 20260506083452 | 55 | 19 | 2.0 | 5.0 | 0.02 | 0.18 | 0.18 | 95 | 1007.2 |
| 20260506082852 | 54 | 347 | 2.0 | 4.0 | 0.03 | 0.18 | 0.18 | 95 | 1007.1 |
| 20260506082251 | 54 | 333 | 2.0 | 5.0 | 0.04 | 0.18 | 0.18 | 95 | 1007.1 |
| 20260506081651 | 54 | 357 | 2.0 | 4.0 | 0.05 | 0.18 | 0.18 | 95 | 1007.1 |
| 20260506081050 | 54 | 105 | 1.0 | 2.0 | 0.06 | 0.17 | 0.17 | 95 | 1007.1 |
| 20260506080453 | 54 | 105 | 1.0 | 2.0 | 0.08 | 0.17 | 0.17 | 95 | 1007.1 |
| 20260506073448 | 53 | 105 | 2.0 | 4.0 | 0.12 | 0.16 | 0.16 | 95 | 1006.9 |
| 20260506072852 | 53 | 107 | 1.0 | 3.0 | 0.11 | 0.15 | 0.15 | 95 | 1006.9 |
| 20260506072248 | 53 | 107 | 1.0 | 3.0 | 0.10 | 0.14 | 0.14 | 95 | 1006.9 |
| 20260506071647 | 53 | 107 | 1.0 | 2.0 | 0.10 | 0.13 | 0.13 | 95 | 1006.9 |
| 20260506071047 | 52 | 107 | 1.0 | 3.0 | 0.10 | 0.11 | 0.11 | 95 | 1006.9 |
| 20260506070447 | 52 | 107 | 0.0 | 1.0 | 0.09 | 0.09 | 0.09 | 95 | 1006.9 |
| 20260506062245 | 51 | 97 | 1.0 | 3.0 | 0.04 | 0.04 | 0.04 | 95 | 1006.7 |
| 20260506061644 | 52 | 97 | 1.0 | 3.0 | 0.03 | 0.03 | 0.03 | 95 | 1006.6 |
| 20260506061043 | 51 | 105 | 1.0 | 3.0 | 0.01 | 0.01 | 0.01 | 94 | 1006.6 |
| 20260506060444 | 51 | 105 | 2.0 | 4.0 | 0.00 | 0.00 | 0.00 | 94 | 1006.6 |
| 20260506051040 | 50 | 124 | 1.0 | 1.0 | 0.00 | 0.00 | 0.00 | 94 | 1006.3 |
| 20260505232357 | 51 | 174 | 0.0 | 1.0 | 0.00 | 0.01 | 0.01 | 90 | 1007.8 |
| 20260505231756 | 52 | 174 | 0.0 | 0.0 | 0.00 | 0.01 | 0.01 | 89 | 1007.8 |
| 20260505231155 | 52 | 174 | 1.0 | 1.0 | 0.00 | 0.01 | 0.01 | 89 | 1007.9 |
| 20260505225955 | 52 | 174 | 1.0 | 3.0 | 0.00 | 0.01 | 0.01 | 89 | 1008.0 |
| 20260505225355 | 52 | 174 | 1.0 | 2.0 | 0.00 | 0.01 | 0.01 | 88 | 1008.0 |
| 20260505224755 | 52 | 199 | 1.0 | 5.0 | 0.00 | 0.01 | 0.01 | 88 | 1008.0 |
| 20260505222354 | 53 | 192 | 0.0 | 3.0 | 0.00 | 0.01 | 0.01 | 87 | 1008.2 |
| 20260505220652 | 53 | 207 | 0.0 | 1.0 | 0.00 | 0.01 | 0.01 | 87 | 1008.2 |
| 20260505220553 | 53 | 207 | 0.0 | 1.0 | 0.00 | 0.01 | 0.01 | 87 | 1008.2 |
| 20260505215352 | 53 | 197 | 0.0 | 1.0 | 0.00 | 0.01 | 0.01 | 86 | 1008.3 |
| 20260505214152 | 53 | 156 | 0.0 | 0.0 | 0.00 | 0.01 | 0.01 | 85 | 1008.4 |
| 20260505212350 | 54 | 204 | 1.0 | 3.0 | 0.00 | 0.01 | 0.01 | 84 | 1008.5 |
| 20260505205949 | 55 | 211 | 0.0 | 1.0 | 0.00 | 0.01 | 0.01 | 83 | 1008.8 |
| 20260505205348 | 55 | 211 | 0.0 | 2.0 | 0.00 | 0.01 | 0.01 | 83 | 1008.9 |
| 20260505204748 | 55 | 230 | 0.0 | 2.0 | 0.00 | 0.01 | 0.01 | 83 | 1008.8 |
| 20260505204148 | 55 | 224 | 0.0 | 4.0 | 0.00 | 0.01 | 0.01 | 83 | 1008.8 |
| 20260505203549 | 55 | 226 | 0.0 | 1.0 | 0.00 | 0.01 | 0.01 | 82 | 1008.8 |
| 20260505202347 | 56 | 205 | 1.0 | 3.0 | 0.00 | 0.01 | 0.01 | 81 | 1008.8 |
| 20260505201746 | 56 | 226 | 1.0 | 5.0 | 0.00 | 0.01 | 0.01 | 81 | 1008.7 |
| 20260505201148 | 56 | 237 | 1.0 | 4.0 | 0.00 | 0.01 | 0.01 | 81 | 1008.7 |
| 20260505200549 | 56 | 218 | 0.0 | 4.0 | 0.00 | 0.01 | 0.01 | 81 | 1008.6 |
| 20260505194745 | 57 | 224 | 1.0 | 4.0 | 0.00 | 0.01 | 0.01 | 79 | 1008.5 |
| 20260505194145 | 57 | 240 | 2.0 | 4.0 | 0.00 | 0.01 | 0.01 | 79 | 1008.4 |
| 20260505193546 | 57 | 236 | 3.0 | 9.0 | 0.00 | 0.01 | 0.01 | 78 | 1008.4 |
| 20260505175939 | 60 | 267 | 6.0 | 13.0 | 0.00 | 0.01 | 0.01 | 72 | 1008.0 |
| 20260505174139 | 61 | 255 | 9.0 | 13.0 | 0.00 | 0.01 | 0.01 | 70 | 1008.0 |
| 20260505170538 | 60 | 312 | 6.0 | 16.0 | 0.00 | 0.01 | 0.01 | 72 | 1008.2 |
| 20260505164734 | 60 | 299 | 4.0 | 10.0 | 0.00 | 0.01 | 0.01 | 75 | 1008.1 |